Duncan, OK

7:09 PM CST on November 15, 2019 (GMT -0600)
Halliburton

Weather History for KDUC - September, 2019

Change the Weather History Date:

Monday, September 23, 2019

  Actual Average (WUND) Record (WUND)
Temperature  
Mean Temperature 78 °F -  
Max Temperature 86 °F - - (-1)
Min Temperature 71 °F - - (-1)
Cooling Degree Days 14    
Growing Degree Days 28 (Base 50)    
Moisture  
Dew Point 72 °F    
Average Humidity 86    
Maximum Humidity 98    
Minimum Humidity 64    
Precipitation  
Precipitation 0.00 in - - ()
Sea Level Pressure  
Sea Level Pressure 30.03 in    
Wind  
Wind Speed 5 mph (ESE)    
Max Wind Speed 12 mph    
Max Gust Speed -    
Visibility 10 miles    
Events Rain    
Averages and records for this station are not official NWS values.
T = Trace of Precipitation, MM = Missing Value Source: NWS Daily Summary

Daily Weather History Graph

Daily Weather History Graph

Search for Another Location

Airport or City:

Astronomy

Sep. 23, 2019 Rise Set
Actual Time 7:20 AM CDT 7:27 PM CDT
Civil Twilight 6:55 AM CDT 7:52 PM CDT
Nautical Twilight 6:26 AM CDT 8:21 PM CDT
Astronomical Twilight 5:56 AM CDT 8:51 PM CDT
Moon 1:20 AM CDT (9/23) 4:06 PM CDT (9/23)
Length of Visible Light 12h 57m
Length of Day
12h 06m
Waning Crescent, 33% of the Moon is Illuminated
Sep 23
Waning Crescent
Sep 28
New
Oct 5
First Quarter
Oct 13
Full
Oct 21
Last Quarter

Hourly Weather History & Observations

Time (CDT) Temp. Heat Index Dew Point Humidity Pressure Visibility Wind Dir Wind Speed Gust Speed Precip Events Conditions
12:15 AM 74.1 °F - 72.3 °F 94% 30.01 in 10.0 mi East 5.8 mph - N/A   Clear
12:35 AM 73.9 °F - 72.3 °F 95% 30.02 in 10.0 mi East 5.8 mph - N/A   Clear
12:55 AM 73.8 °F - 72.3 °F 95% 30.01 in 10.0 mi East 4.6 mph - N/A   Clear
1:15 AM 73.8 °F - 72.3 °F 95% 30.01 in 10.0 mi ENE 3.5 mph - N/A   Clear
1:35 AM 73.4 °F - 72.1 °F 96% 30.01 in 10.0 mi ENE 3.5 mph - N/A   Scattered Clouds
1:55 AM 73.4 °F - 71.6 °F 94% 30.02 in 10.0 mi East 3.5 mph - N/A   Clear
2:15 AM 73.0 °F - 71.6 °F 95% 30.02 in 10.0 mi East 5.8 mph - N/A   Scattered Clouds
2:35 AM 73.4 °F - 71.6 °F 94% 30.02 in 10.0 mi East 4.6 mph - N/A   Scattered Clouds
2:55 AM 73.2 °F - 71.4 °F 94% 30.02 in 10.0 mi ESE 4.6 mph - N/A   Clear
3:15 AM 73.0 °F - 71.6 °F 95% 30.02 in 10.0 mi ESE 4.6 mph - N/A   Scattered Clouds
3:35 AM 72.7 °F - 71.4 °F 96% 30.01 in 10.0 mi East 5.8 mph - N/A   Scattered Clouds
3:55 AM 72.3 °F - 71.2 °F 96% 30.01 in 10.0 mi East 4.6 mph - N/A   Clear
4:15 AM 72.5 °F - 71.2 °F 96% 30.02 in 10.0 mi Calm Calm - N/A   Scattered Clouds
4:35 AM 72.0 °F - 70.9 °F 96% 30.02 in 10.0 mi ESE 4.6 mph - N/A   Clear
4:55 AM 71.8 °F - 71.1 °F 98% 30.02 in 10.0 mi East 4.6 mph - N/A   Clear
5:35 AM 72.7 °F - 71.4 °F 96% 30.02 in 10.0 mi East 6.9 mph - N/A   Overcast
5:55 AM 72.7 °F - 71.2 °F 95% 30.02 in 10.0 mi East 4.6 mph - N/A   Overcast
6:15 AM 72.7 °F - 71.2 °F 95% 30.03 in 10.0 mi ESE 4.6 mph - N/A   Overcast
6:35 AM 72.5 °F - 71.4 °F 96% 30.04 in 10.0 mi East 5.8 mph - N/A   Overcast
7:15 AM 72.5 °F - 71.4 °F 96% 30.06 in 10.0 mi Calm Calm - N/A   Overcast
7:35 AM 72.7 °F - 71.4 °F 96% 30.06 in 10.0 mi SSW 3.5 mph - N/A Rain Light Rain
7:55 AM 72.9 °F - 71.6 °F 96% 30.06 in 10.0 mi South 3.5 mph - N/A Rain Light Rain
8:15 AM 73.2 °F - 72.1 °F 96% 30.06 in 10.0 mi Calm Calm - N/A Rain Light Rain
8:35 AM 73.4 °F - 72.3 °F 96% 30.06 in 10.0 mi Calm Calm - N/A   Overcast
9:15 AM 74.7 °F - 72.9 °F 94% 30.08 in 10.0 mi Calm Calm - N/A   Overcast
9:35 AM 75.7 °F - 72.7 °F 90% 30.08 in 10.0 mi SE 4.6 mph - N/A   Overcast
9:55 AM 75.6 °F - 72.7 °F 91% 30.09 in 10.0 mi SSE 4.6 mph - N/A   Overcast
10:15 AM 75.7 °F - 72.9 °F 91% 30.09 in 10.0 mi SSE 5.8 mph - N/A   Overcast
10:35 AM 76.3 °F - 73.0 °F 90% 30.09 in 10.0 mi SSE 3.5 mph - N/A   Overcast
10:55 AM 77.0 °F - 72.9 °F 87% 30.10 in 10.0 mi South 3.5 mph - N/A   Overcast
11:15 AM 77.5 °F - 72.7 °F 85% 30.10 in 10.0 mi SSE 3.5 mph - N/A   Overcast
11:35 AM 78.1 °F - 72.7 °F 83% 30.09 in 10.0 mi South 4.6 mph - N/A   Overcast
11:55 AM 78.8 °F - 72.9 °F 82% 30.09 in 10.0 mi South 6.9 mph - N/A   Overcast
12:15 PM 78.3 °F - 72.9 °F 83% 30.08 in 10.0 mi South 5.8 mph - N/A   Overcast
12:35 PM 78.6 °F - 73.2 °F 83% 30.08 in 10.0 mi South 4.6 mph - N/A   Overcast
12:55 PM 79.2 °F - 73.4 °F 82% 30.08 in 10.0 mi South 5.8 mph - N/A   Overcast
1:15 PM 80.1 °F 84.1 °F 72.5 °F 78% 30.07 in 10.0 mi South 3.5 mph - N/A   Overcast
1:35 PM 81.0 °F 85.8 °F 73.0 °F 77% 30.07 in 10.0 mi SSE 6.9 mph - N/A   Overcast
1:55 PM 80.6 °F 85.0 °F 72.7 °F 77% 30.05 in 10.0 mi SE 5.8 mph - N/A   Mostly Cloudy
2:15 PM 81.0 °F 85.8 °F 73.0 °F 77% 30.04 in 10.0 mi East 8.1 mph - N/A   Mostly Cloudy
2:55 PM 82.0 °F 87.7 °F 73.6 °F 75% 30.03 in 10.0 mi SE 5.8 mph - N/A   Overcast
3:15 PM 83.3 °F 89.6 °F 73.6 °F 72% 30.02 in 10.0 mi ESE 8.1 mph - N/A   Overcast
3:35 PM 83.3 °F 88.4 °F 71.8 °F 68% 30.01 in 10.0 mi ESE 9.2 mph - N/A   Overcast
3:55 PM 83.7 °F 89.4 °F 72.7 °F 69% 30.01 in 10.0 mi East 9.2 mph - N/A   Scattered Clouds
4:15 PM 84.0 °F 89.6 °F 72.0 °F 67% 30.01 in 10.0 mi SE 8.1 mph - N/A   Mostly Cloudy
4:35 PM 84.7 °F 90.0 °F 71.2 °F 64% 30.00 in 10.0 mi SE 6.9 mph - N/A   Mostly Cloudy
4:55 PM 84.0 °F 89.6 °F 72.0 °F 67% 30.00 in 10.0 mi ESE 6.9 mph - N/A   Mostly Cloudy
5:15 PM 84.0 °F 89.6 °F 72.0 °F 67% 29.99 in 10.0 mi ESE 8.1 mph - N/A   Mostly Cloudy
5:35 PM 84.0 °F 90.5 °F 73.4 °F 70% 29.99 in 10.0 mi East 6.9 mph - N/A   Scattered Clouds
5:55 PM 86.0 °F 93.8 °F 73.8 °F 67% 29.98 in 10.0 mi East 10.4 mph - N/A   Scattered Clouds
6:15 PM 85.1 °F 90.8 °F 71.8 °F 64% 29.99 in 10.0 mi East 9.2 mph - N/A   Scattered Clouds
6:35 PM 83.8 °F 89.5 °F 72.1 °F 68% 29.99 in 10.0 mi ESE 10.4 mph - N/A   Scattered Clouds
6:55 PM 82.0 °F 87.2 °F 72.7 °F 73% 29.99 in 10.0 mi ESE 8.1 mph - N/A   Clear
7:15 PM 81.3 °F 86.5 °F 73.6 °F 77% 29.99 in 10.0 mi ESE 5.8 mph - N/A   Clear
7:35 PM 80.4 °F 85.3 °F 74.1 °F 81% 29.98 in 10.0 mi SE 8.1 mph - N/A   Clear
7:55 PM 79.9 °F - 74.5 °F 83% 29.99 in 10.0 mi ESE 6.9 mph - N/A   Scattered Clouds
8:15 PM 79.3 °F - 74.3 °F 84% 29.99 in 10.0 mi ESE 9.2 mph - N/A   Scattered Clouds
8:35 PM 78.8 °F - 74.3 °F 86% 29.99 in 10.0 mi ESE 6.9 mph - N/A   Scattered Clouds
8:55 PM 78.3 °F - 74.5 °F 88% 30.00 in 10.0 mi ESE 11.5 mph - N/A   Clear
9:15 PM 77.7 °F - 73.8 °F 88% 30.00 in 10.0 mi ESE 6.9 mph - N/A   Clear
9:35 PM 77.2 °F - 73.2 °F 88% 30.00 in 10.0 mi ESE 8.1 mph - N/A   Clear
9:55 PM 76.6 °F - 72.1 °F 86% 30.00 in 10.0 mi ESE 8.1 mph - N/A   Clear
10:15 PM 76.1 °F - 72.0 °F 87% 30.00 in 10.0 mi ESE 6.9 mph - N/A   Scattered Clouds
11:15 PM 74.8 °F - 72.3 °F 92% 30.00 in 10.0 mi ESE 6.9 mph - N/A   Clear
11:35 PM 74.8 °F - 72.5 °F 92% 30.00 in 10.0 mi ESE 9.2 mph - N/A   Scattered Clouds
11:55 PM 74.7 °F - 72.7 °F 94% 30.00 in 10.0 mi SE 6.9 mph - N/A   Clear